DELTA 1 DEB, 7146

Orbit data source: Space-Track

DELTA 1 DEB, 7146 is space debris in SSO originally from a launch on Tue, 06 Nov 1973 UTC launched from the Air Force Western Test Range (AFWTR). Debris objects in space refer to the collection of defunct objects orbiting the Earth. Examples of debris include non-operational satellites, rocket bodies, and fragments generated from explosions, collisions, or faulty payload assembly.

Loading next visibility...
Identifier
7146, 1973-086DL
Orbit
SSO
Country
Flag of USUS
Related business
Manufacturer
Unknown
Mission
Spacecraft
Bus & Motor
Unknown
Mass
Unknown
Launch date (UTC)
1973-11-06 (53 years ago)
Launch vehicle
Unknown
Launch site
Air Force Western Test Range (AFWTR)
Object type
Payload
Rocket body
Debris
Shape & HBR
Unknown shape, 0.2 m
Radar Cross Section
Medium (>0.1 m² and <1 m²)

Expand to show TLE details & history
Last TLE update: 19 hours ago

TLE from 19 hours ago
0 DELTA 1 DEB
1 07146U 73086DL  26206.61788934  .00000851  00000-0  62929-2 0  9998
2 07146 101.7510  83.0379 0057170  88.2702 299.8111 12.44334301378680
Epoch: 2026-07-25T14:49Z
TLE epoch observation values (Epoch: 2026-07-25T14:49:45.638Z)
Latitude
26.92412°
Longitude
-88.76423°
Altitude
1,469.1 km
Speed
7.141 km/s
True Right ascension
05h 08m 00s
True Declination
26° 47' 53"
Sunlit
Object was in daylight at epoch
Visualization orbit readout
Latitude
Unknown
Longitude
Unknown
Altitude
Unknown
Speed
Unknown
Apparent Right ascension
Unknown
Apparent Declination
Unknown
Sunlit
N/A
Visualization observer readout
Local Sidereal Time
23:17:38
Azimuth
Unknown
Elevation
Unknown
Doppler factor
Unknown
Orbital elements
Apogee altitude
1,530.796 km
Perigee altitude
1,440.879 km
Semi-major axis
7,863.974 km
Eccentricity
0.00572
Inclination
101.751°
RAAN
83.0379°
Arg. of periapsis
88.2702°
True anomaly
299.24066°
Mean anomaly
299.8111°
Eccentric anomaly
299.52608°
Mean motion
3.11229 °/min
Orbital period
115.67 mins
BSTAR
0.0062929
Loading maneuver chart data...
Computing Atmospheric mass density...
Loading historical data...
Loading historical data...
Loading historical data...
Loading historical data...
Loading historical data...
Loading historical data...
Loading historical data...

Documentation

Showing up to 5 results
|